This is the latest recevied weather packets stored in our database for station/object KC0UFP. If no packets are shown the sender has not sent any weather packets the latest 10 day(s).
| Time | Temp. | Humidity | Pressure | Rain* | Wind** | Luminosity | Snow |
|---|---|---|---|---|---|---|---|
| 1778089004 | 13.33° C | 70% | 1015.4 hPa | 0 mm | - | 315 W/m² | - |
| 1778088700 | 13.33° C | 71% | 1015.3 hPa | 0 mm | - | 411 W/m² | - |
| 1778088391 | 13.33° C | 70% | 1015.2 hPa | 0 mm | - | 386 W/m² | - |
| 1778088087 | 13.33° C | 71% | 1015.3 hPa | 0 mm | - | 448 W/m² | - |
| 1778087785 | 13.33° C | 72% | 1015.1 hPa | 0 mm | - | 392 W/m² | - |
| 1778087483 | 13.33° C | 71% | 1015.4 hPa | 0 mm | - | 527 W/m² | - |
| 1778087180 | 13.33° C | 71% | 1015.6 hPa | 0 mm | - | 462 W/m² | - |
| 1778086871 | 12.78° C | 71% | 1015.9 hPa | 0 mm | - | 485 W/m² | - |
| 1778086570 | 12.78° C | 72% | 1015.7 hPa | 0 mm | - | 445 W/m² | - |
| 1778086265 | 12.78° C | 73% | 1016 hPa | 0 mm | - | 314 W/m² | - |
| 1778085963 | 12.78° C | 72% | 1015.8 hPa | 0 mm | - | 354 W/m² | - |
| 1778085660 | 12.78° C | 75% | 1015.9 hPa | 0 mm | - | 299 W/m² | - |
| 1778085356 | 12.22° C | 74% | 1015.9 hPa | 0 mm | - | 349 W/m² | - |
| 1778085052 | 12.22° C | 73% | 1015.7 hPa | 0 mm | - | 217 W/m² | - |
| 1778084748 | 12.22° C | 74% | 1015.5 hPa | 0 mm | - | 250 W/m² | - |
| 1778084445 | 12.22° C | 75% | 1015.6 hPa | 0 mm | - | 223 W/m² | - |
| 1778084142 | 12.22° C | 77% | 1015.3 hPa | 0 mm | - | 259 W/m² | - |
| 1778083834 | 12.22° C | 74% | 1015.2 hPa | 0 mm | - | 483 W/m² | - |
| 1778083532 | 12.22° C | 75% | 1014.9 hPa | 0 mm | - | 613 W/m² | - |
| 1778083229 | 12.22° C | 75% | 1014.9 hPa | 0 mm | - | 528 W/m² | - |
| 1778082927 | 12.22° C | 78% | 1015.2 hPa | 0 mm | - | 531 W/m² | - |
| 1778081824 | 11.67° C | 78% | 1015.1 hPa | 0 mm | - | 379 W/m² | - |
| 1778081521 | 11.67° C | 80% | 1015.3 hPa | 0 mm | - | 376 W/m² | - |
| 1778081218 | 11.67° C | 79% | 1015.5 hPa | 0 mm | - | 393 W/m² | - |
| 1778080916 | 11.11° C | 79% | 1015.5 hPa | 0 mm | - | 338 W/m² | - |
* Rain latest hour (hover to see other rain measurements)
** Current wind speed in m/s (hover to see current wind gust speed)